TimeEDT,TemperatureF,Dew PointF,Humidity,Sea Level PressureIn,VisibilityMPH,Wind Direction,Wind SpeedMPH,Gust SpeedMPH,PrecipitationIn,Events,Conditions,WindDirDegrees,DateUTC
12:53 AM,62.1,37.9,41,29.88,10.0,WSW,6.9,-,N/A,,Clear,250,2013-03-17 04:53:00
1:53 AM,60.1,39.0,46,29.89,10.0,WSW,9.2,-,N/A,,Clear,240,2013-03-17 05:53:00
2:53 AM,57.9,39.9,51,29.90,10.0,WSW,8.1,-,N/A,,Clear,240,2013-03-17 06:53:00
3:53 AM,57.9,39.9,51,29.90,10.0,SW,6.9,-,N/A,,Clear,230,2013-03-17 07:53:00
4:53 AM,57.9,39.0,49,29.89,10.0,WSW,5.8,-,N/A,,Clear,240,2013-03-17 08:53:00
5:53 AM,57.0,41.0,55,29.91,10.0,WSW,6.9,-,N/A,,Clear,250,2013-03-17 09:53:00
6:53 AM,55.0,39.9,57,29.93,10.0,WSW,4.6,-,N/A,,Clear,240,2013-03-17 10:53:00
7:53 AM,53.1,41.0,64,29.94,10.0,SW,6.9,-,N/A,,Clear,220,2013-03-17 11:53:00
8:53 AM,59.0,43.0,55,29.96,10.0,WSW,8.1,-,N/A,,Clear,240,2013-03-17 12:53:00
9:53 AM,61.0,43.0,52,29.96,10.0,WSW,12.7,-,N/A,,Clear,240,2013-03-17 13:53:00
10:53 AM,66.0,44.1,45,29.97,10.0,WSW,5.8,-,N/A,,Clear,240,2013-03-17 14:53:00
11:53 AM,71.1,45.0,39,29.97,10.0,WSW,5.8,-,N/A,,Clear,250,2013-03-17 15:53:00
12:53 PM,73.9,46.0,37,29.96,10.0,SW,5.8,-,N/A,,Clear,220,2013-03-17 16:53:00
1:53 PM,75.9,46.9,36,29.93,10.0,SW,5.8,-,N/A,,Clear,220,2013-03-17 17:53:00
2:53 PM,77.0,46.0,33,29.90,10.0,South,8.1,-,N/A,,Mostly Cloudy,170,2013-03-17 18:53:00
3:53 PM,75.9,46.9,36,29.89,10.0,SSW,9.2,-,N/A,,Scattered Clouds,210,2013-03-17 19:53:00
4:25 PM,68.0,53.6,60,29.88,10.0,NE,11.5,21.9,N/A,,Scattered Clouds,40,2013-03-17 20:25:00
4:53 PM,66.9,53.1,61,29.91,10.0,NE,16.1,-,N/A,,Mostly Cloudy,50,2013-03-17 20:53:00
5:53 PM,66.0,52.0,60,29.94,10.0,NE,13.8,20.7,N/A,,Mostly Cloudy,50,2013-03-17 21:53:00
6:53 PM,64.0,52.0,65,29.96,10.0,NE,12.7,-,N/A,,Partly Cloudy,50,2013-03-17 22:53:00
7:53 PM,60.1,46.9,62,30.00,10.0,NE,13.8,21.9,N/A,,Clear,50,2013-03-17 23:53:00
8:53 PM,55.0,45.0,69,30.05,10.0,NE,12.7,20.7,N/A,,Scattered Clouds,40,2013-03-18 00:53:00
9:53 PM,50.0,42.1,74,30.09,10.0,ENE,12.7,21.9,N/A,,Partly Cloudy,60,2013-03-18 01:53:00
10:53 PM,48.0,41.0,77,30.11,10.0,NE,17.3,-,N/A,,Clear,50,2013-03-18 02:53:00
11:53 PM,48.0,39.9,74,30.11,10.0,NE,9.2,19.6,N/A,,Clear,50,2013-03-18 03:53:00